Index of /20260424/WXO-DD/model_gdps/15km/00/045
Name Last modified Size Description
Parent Directory -
20260424T00Z_MSC_GDPS_AbsoluteVorticity_IsbL-0200_LatLon0.15_PT045H.grib2 2026-04-24 04:09 1.2M
20260424T00Z_MSC_GDPS_AbsoluteVorticity_IsbL-0250_LatLon0.15_PT045H.grib2 2026-04-24 04:09 1.3M
20260424T00Z_MSC_GDPS_AbsoluteVorticity_IsbL-0500_LatLon0.15_PT045H.grib2 2026-04-24 04:09 1.2M
20260424T00Z_MSC_GDPS_AbsoluteVorticity_IsbL-0700_LatLon0.15_PT045H.grib2 2026-04-24 04:09 1.3M
20260424T00Z_MSC_GDPS_AbsoluteVorticity_IsbL-0850_LatLon0.15_PT045H.grib2 2026-04-24 04:09 1.6M
20260424T00Z_MSC_GDPS_AirTemp_AGL-120m_LatLon0.15_PT045H.grib2 2026-04-24 04:09 915K
20260424T00Z_MSC_GDPS_AirTemp_AGL-2m_LatLon0.15_PT045H.grib2 2026-04-24 04:09 1.0M
20260424T00Z_MSC_GDPS_AirTemp_AGL-40m_LatLon0.15_PT045H.grib2 2026-04-24 04:09 824K
20260424T00Z_MSC_GDPS_AirTemp_AGL-80m_LatLon0.15_PT045H.grib2 2026-04-24 04:09 927K
20260424T00Z_MSC_GDPS_AirTemp_IsbL-0001_LatLon0.15_PT045H.grib2 2026-04-24 04:09 708K
20260424T00Z_MSC_GDPS_AirTemp_IsbL-0005_LatLon0.15_PT045H.grib2 2026-04-24 04:09 754K
20260424T00Z_MSC_GDPS_AirTemp_IsbL-0010_LatLon0.15_PT045H.grib2 2026-04-24 04:09 765K
20260424T00Z_MSC_GDPS_AirTemp_IsbL-0020_LatLon0.15_PT045H.grib2 2026-04-24 04:09 704K
20260424T00Z_MSC_GDPS_AirTemp_IsbL-0030_LatLon0.15_PT045H.grib2 2026-04-24 04:09 757K
20260424T00Z_MSC_GDPS_AirTemp_IsbL-0050_LatLon0.15_PT045H.grib2 2026-04-24 04:09 815K
20260424T00Z_MSC_GDPS_AirTemp_IsbL-0100_LatLon0.15_PT045H.grib2 2026-04-24 04:09 950K
20260424T00Z_MSC_GDPS_AirTemp_IsbL-0150_LatLon0.15_PT045H.grib2 2026-04-24 04:09 968K
20260424T00Z_MSC_GDPS_AirTemp_IsbL-0175_LatLon0.15_PT045H.grib2 2026-04-24 04:09 958K
20260424T00Z_MSC_GDPS_AirTemp_IsbL-0200_LatLon0.15_PT045H.grib2 2026-04-24 04:09 968K
20260424T00Z_MSC_GDPS_AirTemp_IsbL-0225_LatLon0.15_PT045H.grib2 2026-04-24 04:09 1.0M
20260424T00Z_MSC_GDPS_AirTemp_IsbL-0250_LatLon0.15_PT045H.grib2 2026-04-24 04:09 1.0M
20260424T00Z_MSC_GDPS_AirTemp_IsbL-0275_LatLon0.15_PT045H.grib2 2026-04-24 04:09 1.0M
20260424T00Z_MSC_GDPS_AirTemp_IsbL-0300_LatLon0.15_PT045H.grib2 2026-04-24 04:09 1.0M
20260424T00Z_MSC_GDPS_AirTemp_IsbL-0350_LatLon0.15_PT045H.grib2 2026-04-24 04:09 934K
20260424T00Z_MSC_GDPS_AirTemp_IsbL-0400_LatLon0.15_PT045H.grib2 2026-04-24 04:09 944K
20260424T00Z_MSC_GDPS_AirTemp_IsbL-0450_LatLon0.15_PT045H.grib2 2026-04-24 04:09 965K
20260424T00Z_MSC_GDPS_AirTemp_IsbL-0500_LatLon0.15_PT045H.grib2 2026-04-24 04:09 771K
20260424T00Z_MSC_GDPS_AirTemp_IsbL-0550_LatLon0.15_PT045H.grib2 2026-04-24 04:09 809K
20260424T00Z_MSC_GDPS_AirTemp_IsbL-0600_LatLon0.15_PT045H.grib2 2026-04-24 04:09 897K
20260424T00Z_MSC_GDPS_AirTemp_IsbL-0650_LatLon0.15_PT045H.grib2 2026-04-24 04:09 921K
20260424T00Z_MSC_GDPS_AirTemp_IsbL-0700_LatLon0.15_PT045H.grib2 2026-04-24 04:09 948K
20260424T00Z_MSC_GDPS_AirTemp_IsbL-0750_LatLon0.15_PT045H.grib2 2026-04-24 04:09 1.0M
20260424T00Z_MSC_GDPS_AirTemp_IsbL-0800_LatLon0.15_PT045H.grib2 2026-04-24 04:09 1.1M
20260424T00Z_MSC_GDPS_AirTemp_IsbL-0850_LatLon0.15_PT045H.grib2 2026-04-24 04:09 1.1M
20260424T00Z_MSC_GDPS_AirTemp_IsbL-0875_LatLon0.15_PT045H.grib2 2026-04-24 04:09 1.1M
20260424T00Z_MSC_GDPS_AirTemp_IsbL-0900_LatLon0.15_PT045H.grib2 2026-04-24 04:09 1.1M
20260424T00Z_MSC_GDPS_AirTemp_IsbL-0925_LatLon0.15_PT045H.grib2 2026-04-24 04:09 1.1M
20260424T00Z_MSC_GDPS_AirTemp_IsbL-0950_LatLon0.15_PT045H.grib2 2026-04-24 04:09 1.2M
20260424T00Z_MSC_GDPS_AirTemp_IsbL-0970_LatLon0.15_PT045H.grib2 2026-04-24 04:09 1.2M
20260424T00Z_MSC_GDPS_AirTemp_IsbL-0985_LatLon0.15_PT045H.grib2 2026-04-24 04:09 1.1M
20260424T00Z_MSC_GDPS_AirTemp_IsbL-1000_LatLon0.15_PT045H.grib2 2026-04-24 04:09 1.1M
20260424T00Z_MSC_GDPS_AirTemp_IsbL-1015_LatLon0.15_PT045H.grib2 2026-04-24 04:09 1.1M
20260424T00Z_MSC_GDPS_Albedo_Sfc_LatLon0.15_PT045H.grib2 2026-04-24 04:09 246K
20260424T00Z_MSC_GDPS_CAPE_Sfc_LatLon0.15_PT045H.grib2 2026-04-24 04:09 3.9M
20260424T00Z_MSC_GDPS_CIN_Sfc_LatLon0.15_PT045H.grib2 2026-04-24 04:09 2.9M
20260424T00Z_MSC_GDPS_CloudWater_EAtm_LatLon0.15_PT045H.grib2 2026-04-24 04:09 536K
20260424T00Z_MSC_GDPS_ConvectivePrecip-Accum_Sfc_LatLon0.15_PT045H.grib2 2026-04-24 04:09 2.8M
20260424T00Z_MSC_GDPS_DewPointDepression_AGL-2m_LatLon0.15_PT045H.grib2 2026-04-24 04:09 758K
20260424T00Z_MSC_GDPS_DewPointDepression_IsbL-0010_LatLon0.15_PT045H.grib2 2026-04-24 04:09 52K
20260424T00Z_MSC_GDPS_DewPointDepression_IsbL-0020_LatLon0.15_PT045H.grib2 2026-04-24 04:09 75K
20260424T00Z_MSC_GDPS_DewPointDepression_IsbL-0030_LatLon0.15_PT045H.grib2 2026-04-24 04:09 82K
20260424T00Z_MSC_GDPS_DewPointDepression_IsbL-0050_LatLon0.15_PT045H.grib2 2026-04-24 04:09 363K
20260424T00Z_MSC_GDPS_DewPointDepression_IsbL-0100_LatLon0.15_PT045H.grib2 2026-04-24 04:09 397K
20260424T00Z_MSC_GDPS_DewPointDepression_IsbL-0150_LatLon0.15_PT045H.grib2 2026-04-24 04:09 470K
20260424T00Z_MSC_GDPS_DewPointDepression_IsbL-0175_LatLon0.15_PT045H.grib2 2026-04-24 04:09 559K
20260424T00Z_MSC_GDPS_DewPointDepression_IsbL-0200_LatLon0.15_PT045H.grib2 2026-04-24 04:09 647K
20260424T00Z_MSC_GDPS_DewPointDepression_IsbL-0225_LatLon0.15_PT045H.grib2 2026-04-24 04:09 757K
20260424T00Z_MSC_GDPS_DewPointDepression_IsbL-0250_LatLon0.15_PT045H.grib2 2026-04-24 04:09 856K
20260424T00Z_MSC_GDPS_DewPointDepression_IsbL-0275_LatLon0.15_PT045H.grib2 2026-04-24 04:09 892K
20260424T00Z_MSC_GDPS_DewPointDepression_IsbL-0300_LatLon0.15_PT045H.grib2 2026-04-24 04:09 944K
20260424T00Z_MSC_GDPS_DewPointDepression_IsbL-0350_LatLon0.15_PT045H.grib2 2026-04-24 04:09 973K
20260424T00Z_MSC_GDPS_DewPointDepression_IsbL-0400_LatLon0.15_PT045H.grib2 2026-04-24 04:09 1.0M
20260424T00Z_MSC_GDPS_DewPointDepression_IsbL-0450_LatLon0.15_PT045H.grib2 2026-04-24 04:09 1.0M
20260424T00Z_MSC_GDPS_DewPointDepression_IsbL-0500_LatLon0.15_PT045H.grib2 2026-04-24 04:09 1.0M
20260424T00Z_MSC_GDPS_DewPointDepression_IsbL-0550_LatLon0.15_PT045H.grib2 2026-04-24 04:09 1.0M
20260424T00Z_MSC_GDPS_DewPointDepression_IsbL-0600_LatLon0.15_PT045H.grib2 2026-04-24 04:09 1.1M
20260424T00Z_MSC_GDPS_DewPointDepression_IsbL-0650_LatLon0.15_PT045H.grib2 2026-04-24 04:09 1.1M
20260424T00Z_MSC_GDPS_DewPointDepression_IsbL-0700_LatLon0.15_PT045H.grib2 2026-04-24 04:09 1.1M
20260424T00Z_MSC_GDPS_DewPointDepression_IsbL-0750_LatLon0.15_PT045H.grib2 2026-04-24 04:09 1.1M
20260424T00Z_MSC_GDPS_DewPointDepression_IsbL-0800_LatLon0.15_PT045H.grib2 2026-04-24 04:09 1.2M
20260424T00Z_MSC_GDPS_DewPointDepression_IsbL-0850_LatLon0.15_PT045H.grib2 2026-04-24 04:09 1.1M
20260424T00Z_MSC_GDPS_DewPointDepression_IsbL-0875_LatLon0.15_PT045H.grib2 2026-04-24 04:09 1.1M
20260424T00Z_MSC_GDPS_DewPointDepression_IsbL-0900_LatLon0.15_PT045H.grib2 2026-04-24 04:09 1.1M
20260424T00Z_MSC_GDPS_DewPointDepression_IsbL-0925_LatLon0.15_PT045H.grib2 2026-04-24 04:09 1.0M
20260424T00Z_MSC_GDPS_DewPointDepression_IsbL-0950_LatLon0.15_PT045H.grib2 2026-04-24 04:09 1.0M
20260424T00Z_MSC_GDPS_DewPointDepression_IsbL-0970_LatLon0.15_PT045H.grib2 2026-04-24 04:09 1.0M
20260424T00Z_MSC_GDPS_DewPointDepression_IsbL-0985_LatLon0.15_PT045H.grib2 2026-04-24 04:09 1.0M
20260424T00Z_MSC_GDPS_DewPointDepression_IsbL-1000_LatLon0.15_PT045H.grib2 2026-04-24 04:09 1.0M
20260424T00Z_MSC_GDPS_DewPointDepression_IsbL-1015_LatLon0.15_PT045H.grib2 2026-04-24 04:09 919K
20260424T00Z_MSC_GDPS_DewPoint_AGL-2m_LatLon0.15_PT045H.grib2 2026-04-24 04:09 612K
20260424T00Z_MSC_GDPS_DownwardLongwaveRadiationFlux-Accum_Sfc_LatLon0.15_PT045H.grib2 2026-04-24 04:09 774K
20260424T00Z_MSC_GDPS_DownwardShortwaveRadiationFlux-Accum_NTAtm_LatLon0.15_PT045H.grib2 2026-04-24 04:09 275K
20260424T00Z_MSC_GDPS_DownwardShortwaveRadiationFlux-Accum_Sfc_LatLon0.15_PT045H.grib2 2026-04-24 04:09 1.0M
20260424T00Z_MSC_GDPS_FreezingRain-Accum1h_Sfc_LatLon0.15_PT045H.grib2 2026-04-24 04:09 54K
20260424T00Z_MSC_GDPS_FreezingRain-Accum3h_Sfc_LatLon0.15_PT045H.grib2 2026-04-24 04:09 64K
20260424T00Z_MSC_GDPS_FreezingRain-Accum_Sfc_LatLon0.15_PT045H.grib2 2026-04-24 04:09 272K
20260424T00Z_MSC_GDPS_GeopotentialHeight_IsbL-0001_LatLon0.15_PT045H.grib2 2026-04-24 04:09 395K
20260424T00Z_MSC_GDPS_GeopotentialHeight_IsbL-0005_LatLon0.15_PT045H.grib2 2026-04-24 04:09 499K
20260424T00Z_MSC_GDPS_GeopotentialHeight_IsbL-0010_LatLon0.15_PT045H.grib2 2026-04-24 04:09 482K
20260424T00Z_MSC_GDPS_GeopotentialHeight_IsbL-0020_LatLon0.15_PT045H.grib2 2026-04-24 04:09 422K
20260424T00Z_MSC_GDPS_GeopotentialHeight_IsbL-0030_LatLon0.15_PT045H.grib2 2026-04-24 04:09 579K
20260424T00Z_MSC_GDPS_GeopotentialHeight_IsbL-0050_LatLon0.15_PT045H.grib2 2026-04-24 04:09 574K
20260424T00Z_MSC_GDPS_GeopotentialHeight_IsbL-0100_LatLon0.15_PT045H.grib2 2026-04-24 04:09 607K
20260424T00Z_MSC_GDPS_GeopotentialHeight_IsbL-0150_LatLon0.15_PT045H.grib2 2026-04-24 04:09 626K
20260424T00Z_MSC_GDPS_GeopotentialHeight_IsbL-0175_LatLon0.15_PT045H.grib2 2026-04-24 04:09 631K
20260424T00Z_MSC_GDPS_GeopotentialHeight_IsbL-0200_LatLon0.15_PT045H.grib2 2026-04-24 04:09 636K
20260424T00Z_MSC_GDPS_GeopotentialHeight_IsbL-0225_LatLon0.15_PT045H.grib2 2026-04-24 04:09 639K
20260424T00Z_MSC_GDPS_GeopotentialHeight_IsbL-0250_LatLon0.15_PT045H.grib2 2026-04-24 04:09 643K
20260424T00Z_MSC_GDPS_GeopotentialHeight_IsbL-0275_LatLon0.15_PT045H.grib2 2026-04-24 04:09 643K
20260424T00Z_MSC_GDPS_GeopotentialHeight_IsbL-0300_LatLon0.15_PT045H.grib2 2026-04-24 04:09 642K
20260424T00Z_MSC_GDPS_GeopotentialHeight_IsbL-0350_LatLon0.15_PT045H.grib2 2026-04-24 04:09 632K
20260424T00Z_MSC_GDPS_GeopotentialHeight_IsbL-0400_LatLon0.15_PT045H.grib2 2026-04-24 04:09 625K
20260424T00Z_MSC_GDPS_GeopotentialHeight_IsbL-0450_LatLon0.15_PT045H.grib2 2026-04-24 04:09 614K
20260424T00Z_MSC_GDPS_GeopotentialHeight_IsbL-0500_LatLon0.15_PT045H.grib2 2026-04-24 04:09 535K
20260424T00Z_MSC_GDPS_GeopotentialHeight_IsbL-0550_LatLon0.15_PT045H.grib2 2026-04-24 04:09 697K
20260424T00Z_MSC_GDPS_GeopotentialHeight_IsbL-0600_LatLon0.15_PT045H.grib2 2026-04-24 04:09 688K
20260424T00Z_MSC_GDPS_GeopotentialHeight_IsbL-0650_LatLon0.15_PT045H.grib2 2026-04-24 04:09 685K
20260424T00Z_MSC_GDPS_GeopotentialHeight_IsbL-0700_LatLon0.15_PT045H.grib2 2026-04-24 04:09 684K
20260424T00Z_MSC_GDPS_GeopotentialHeight_IsbL-0750_LatLon0.15_PT045H.grib2 2026-04-24 04:09 687K
20260424T00Z_MSC_GDPS_GeopotentialHeight_IsbL-0800_LatLon0.15_PT045H.grib2 2026-04-24 04:09 696K
20260424T00Z_MSC_GDPS_GeopotentialHeight_IsbL-0850_LatLon0.15_PT045H.grib2 2026-04-24 04:09 707K
20260424T00Z_MSC_GDPS_GeopotentialHeight_IsbL-0875_LatLon0.15_PT045H.grib2 2026-04-24 04:09 711K
20260424T00Z_MSC_GDPS_GeopotentialHeight_IsbL-0900_LatLon0.15_PT045H.grib2 2026-04-24 04:09 716K
20260424T00Z_MSC_GDPS_GeopotentialHeight_IsbL-0925_LatLon0.15_PT045H.grib2 2026-04-24 04:09 724K
20260424T00Z_MSC_GDPS_GeopotentialHeight_IsbL-0950_LatLon0.15_PT045H.grib2 2026-04-24 04:09 732K
20260424T00Z_MSC_GDPS_GeopotentialHeight_IsbL-0970_LatLon0.15_PT045H.grib2 2026-04-24 04:09 745K
20260424T00Z_MSC_GDPS_GeopotentialHeight_IsbL-0985_LatLon0.15_PT045H.grib2 2026-04-24 04:09 762K
20260424T00Z_MSC_GDPS_GeopotentialHeight_IsbL-1000_LatLon0.15_PT045H.grib2 2026-04-24 04:09 784K
20260424T00Z_MSC_GDPS_GeopotentialHeight_IsbL-1015_LatLon0.15_PT045H.grib2 2026-04-24 04:09 808K
20260424T00Z_MSC_GDPS_Humidex_Sfc_LatLon0.15_PT045H.grib2 2026-04-24 04:09 5.3M
20260424T00Z_MSC_GDPS_IcePellets-Accum1h_Sfc_LatLon0.15_PT045H.grib2 2026-04-24 04:09 22K
20260424T00Z_MSC_GDPS_IcePellets-Accum3h_Sfc_LatLon0.15_PT045H.grib2 2026-04-24 04:09 25K
20260424T00Z_MSC_GDPS_IcePellets-Accum_Sfc_LatLon0.15_PT045H.grib2 2026-04-24 04:09 81K
20260424T00Z_MSC_GDPS_KIndex_Sfc_LatLon0.15_PT045H.grib2 2026-04-24 04:09 6.4M
20260424T00Z_MSC_GDPS_LatentHeatNetFlux_Sfc_LatLon0.15_PT045H.grib2 2026-04-24 04:09 661K
20260424T00Z_MSC_GDPS_LiftedIndex-MU-VT_IsbL-0500_LatLon0.15_PT045H.grib2 2026-04-24 04:09 5.4M
20260424T00Z_MSC_GDPS_NetLongwaveRadiationFlux-Accum_Sfc_LatLon0.15_PT045H.grib2 2026-04-24 04:09 1.1M
20260424T00Z_MSC_GDPS_NetShortwaveRadiationFlux-Accum_Sfc_LatLon0.15_PT045H.grib2 2026-04-24 04:09 1.0M
20260424T00Z_MSC_GDPS_O3MixingRatio_LatLon0.15_PT045H.grib2 2026-04-24 04:50 2.3M
20260424T00Z_MSC_GDPS_O3_EAtm_LatLon0.15_PT045H.grib2 2026-04-24 04:50 2.5M
20260424T00Z_MSC_GDPS_PlanetaryBoundaryLayerHeight_Sfc_LatLon0.15_PT045H.grib2 2026-04-24 04:09 2.4M
20260424T00Z_MSC_GDPS_Precip-Accum1h_Sfc_LatLon0.15_PT045H.grib2 2026-04-24 04:09 3.3M
20260424T00Z_MSC_GDPS_Precip-Accum3h_Sfc_LatLon0.15_PT045H.grib2 2026-04-24 04:09 3.6M
20260424T00Z_MSC_GDPS_Precip-Accum_Sfc_LatLon0.15_PT045H.grib2 2026-04-24 04:09 4.8M
20260424T00Z_MSC_GDPS_PrecipRate_Sfc_LatLon0.15_PT045H.grib2 2026-04-24 04:09 3.0M
20260424T00Z_MSC_GDPS_PrecipType-Instant_Sfc_LatLon0.15_PT045H.grib2 2026-04-24 04:09 1.6M
20260424T00Z_MSC_GDPS_Pressure_MSL_LatLon0.15_PT045H.grib2 2026-04-24 04:09 721K
20260424T00Z_MSC_GDPS_Pressure_PVU-1.5_LatLon0.15_PT045H.grib2 2026-04-24 04:09 5.8M
20260424T00Z_MSC_GDPS_Pressure_PVU-1_LatLon0.15_PT045H.grib2 2026-04-24 04:09 6.0M
20260424T00Z_MSC_GDPS_Pressure_PVU-2_LatLon0.15_PT045H.grib2 2026-04-24 04:09 5.6M
20260424T00Z_MSC_GDPS_Pressure_Sfc_LatLon0.15_PT045H.grib2 2026-04-24 04:09 1.1M
20260424T00Z_MSC_GDPS_RadiativeTemp_Sfc_LatLon0.15_PT045H.grib2 2026-04-24 04:09 663K
20260424T00Z_MSC_GDPS_Rain-Accum1h_Sfc_LatLon0.15_PT045H.grib2 2026-04-24 04:09 1.5M
20260424T00Z_MSC_GDPS_Rain-Accum3h_Sfc_LatLon0.15_PT045H.grib2 2026-04-24 04:09 1.7M
20260424T00Z_MSC_GDPS_Rain-Accum_Sfc_LatLon0.15_PT045H.grib2 2026-04-24 04:09 3.6M
20260424T00Z_MSC_GDPS_RelativeHumidity_AGL-2m_LatLon0.15_PT045H.grib2 2026-04-24 04:09 1.1M
20260424T00Z_MSC_GDPS_RelativeHumidity_IsbL-0010_LatLon0.15_PT045H.grib2 2026-04-24 04:09 271K
20260424T00Z_MSC_GDPS_RelativeHumidity_IsbL-0020_LatLon0.15_PT045H.grib2 2026-04-24 04:09 283K
20260424T00Z_MSC_GDPS_RelativeHumidity_IsbL-0030_LatLon0.15_PT045H.grib2 2026-04-24 04:09 351K
20260424T00Z_MSC_GDPS_RelativeHumidity_IsbL-0050_LatLon0.15_PT045H.grib2 2026-04-24 04:09 518K
20260424T00Z_MSC_GDPS_RelativeHumidity_IsbL-0100_LatLon0.15_PT045H.grib2 2026-04-24 04:09 498K
20260424T00Z_MSC_GDPS_RelativeHumidity_IsbL-0150_LatLon0.15_PT045H.grib2 2026-04-24 04:09 654K
20260424T00Z_MSC_GDPS_RelativeHumidity_IsbL-0175_LatLon0.15_PT045H.grib2 2026-04-24 04:09 779K
20260424T00Z_MSC_GDPS_RelativeHumidity_IsbL-0200_LatLon0.15_PT045H.grib2 2026-04-24 04:09 693K
20260424T00Z_MSC_GDPS_RelativeHumidity_IsbL-0225_LatLon0.15_PT045H.grib2 2026-04-24 04:09 779K
20260424T00Z_MSC_GDPS_RelativeHumidity_IsbL-0250_LatLon0.15_PT045H.grib2 2026-04-24 04:09 860K
20260424T00Z_MSC_GDPS_RelativeHumidity_IsbL-0275_LatLon0.15_PT045H.grib2 2026-04-24 04:09 890K
20260424T00Z_MSC_GDPS_RelativeHumidity_IsbL-0300_LatLon0.15_PT045H.grib2 2026-04-24 04:09 941K
20260424T00Z_MSC_GDPS_RelativeHumidity_IsbL-0350_LatLon0.15_PT045H.grib2 2026-04-24 04:09 966K
20260424T00Z_MSC_GDPS_RelativeHumidity_IsbL-0400_LatLon0.15_PT045H.grib2 2026-04-24 04:09 1.0M
20260424T00Z_MSC_GDPS_RelativeHumidity_IsbL-0450_LatLon0.15_PT045H.grib2 2026-04-24 04:09 1.0M
20260424T00Z_MSC_GDPS_RelativeHumidity_IsbL-0500_LatLon0.15_PT045H.grib2 2026-04-24 04:09 1.0M
20260424T00Z_MSC_GDPS_RelativeHumidity_IsbL-0550_LatLon0.15_PT045H.grib2 2026-04-24 04:09 1.0M
20260424T00Z_MSC_GDPS_RelativeHumidity_IsbL-0600_LatLon0.15_PT045H.grib2 2026-04-24 04:09 1.1M
20260424T00Z_MSC_GDPS_RelativeHumidity_IsbL-0650_LatLon0.15_PT045H.grib2 2026-04-24 04:09 1.1M
20260424T00Z_MSC_GDPS_RelativeHumidity_IsbL-0700_LatLon0.15_PT045H.grib2 2026-04-24 04:09 1.2M
20260424T00Z_MSC_GDPS_RelativeHumidity_IsbL-0750_LatLon0.15_PT045H.grib2 2026-04-24 04:09 1.2M
20260424T00Z_MSC_GDPS_RelativeHumidity_IsbL-0800_LatLon0.15_PT045H.grib2 2026-04-24 04:09 1.3M
20260424T00Z_MSC_GDPS_RelativeHumidity_IsbL-0850_LatLon0.15_PT045H.grib2 2026-04-24 04:09 1.3M
20260424T00Z_MSC_GDPS_RelativeHumidity_IsbL-0875_LatLon0.15_PT045H.grib2 2026-04-24 04:09 1.3M
20260424T00Z_MSC_GDPS_RelativeHumidity_IsbL-0900_LatLon0.15_PT045H.grib2 2026-04-24 04:09 1.2M
20260424T00Z_MSC_GDPS_RelativeHumidity_IsbL-0925_LatLon0.15_PT045H.grib2 2026-04-24 04:09 1.2M
20260424T00Z_MSC_GDPS_RelativeHumidity_IsbL-0950_LatLon0.15_PT045H.grib2 2026-04-24 04:09 1.2M
20260424T00Z_MSC_GDPS_RelativeHumidity_IsbL-0970_LatLon0.15_PT045H.grib2 2026-04-24 04:09 1.2M
20260424T00Z_MSC_GDPS_RelativeHumidity_IsbL-0985_LatLon0.15_PT045H.grib2 2026-04-24 04:09 1.2M
20260424T00Z_MSC_GDPS_RelativeHumidity_IsbL-1000_LatLon0.15_PT045H.grib2 2026-04-24 04:09 1.1M
20260424T00Z_MSC_GDPS_RelativeHumidity_IsbL-1015_LatLon0.15_PT045H.grib2 2026-04-24 04:09 1.1M
20260424T00Z_MSC_GDPS_RelativeVorticity_IsbL-0200_LatLon0.15_PT045H.grib2 2026-04-24 04:09 1.2M
20260424T00Z_MSC_GDPS_RelativeVorticity_IsbL-0250_LatLon0.15_PT045H.grib2 2026-04-24 04:09 1.3M
20260424T00Z_MSC_GDPS_RelativeVorticity_IsbL-0500_LatLon0.15_PT045H.grib2 2026-04-24 04:09 1.2M
20260424T00Z_MSC_GDPS_RelativeVorticity_IsbL-0700_LatLon0.15_PT045H.grib2 2026-04-24 04:09 1.6M
20260424T00Z_MSC_GDPS_RelativeVorticity_IsbL-0850_LatLon0.15_PT045H.grib2 2026-04-24 04:09 1.6M
20260424T00Z_MSC_GDPS_Runoff-Accum_Sfc_LatLon0.15_PT045H.grib2 2026-04-24 04:09 108K
20260424T00Z_MSC_GDPS_SensibleHeatNetFlux_Sfc_LatLon0.15_PT045H.grib2 2026-04-24 04:09 447K
20260424T00Z_MSC_GDPS_ShowalterIndex_IsbL-0500_LatLon0.15_PT045H.grib2 2026-04-24 04:09 6.2M
20260424T00Z_MSC_GDPS_Snow-Accum1h_Sfc_LatLon0.15_PT045H.grib2 2026-04-24 04:09 1.3M
20260424T00Z_MSC_GDPS_Snow-Accum3h_Sfc_LatLon0.15_PT045H.grib2 2026-04-24 04:09 1.2M
20260424T00Z_MSC_GDPS_Snow-Accum_Sfc_LatLon0.15_PT045H.grib2 2026-04-24 04:09 1.9M
20260424T00Z_MSC_GDPS_SnowDensity_Sfc_LatLon0.15_PT045H.grib2 2026-04-24 04:09 266K
20260424T00Z_MSC_GDPS_SnowDepth_Sfc_LatLon0.15_PT045H.grib2 2026-04-24 04:09 1.8M
20260424T00Z_MSC_GDPS_SoilTemp_DBS-0to10cm_LatLon0.15_PT045H.grib2 2026-04-24 04:09 502K
20260424T00Z_MSC_GDPS_SoilTemp_Sfc_LatLon0.15_PT045H.grib2 2026-04-24 04:09 570K
20260424T00Z_MSC_GDPS_SoilVolumetricIceContent_Sfc_LatLon0.15_PT045H.grib2 2026-04-24 04:09 214K
20260424T00Z_MSC_GDPS_SoilVolumetricWaterContent_DBS-0to10cm_LatLon0.15_PT045H.grib2 2026-04-24 04:09 563K
20260424T00Z_MSC_GDPS_SoilVolumetricWaterContent_DBS-0to1cm_LatLon0.15_PT045H.grib2 2026-04-24 04:09 650K
20260424T00Z_MSC_GDPS_SpecificHumidity_AGL-120m_LatLon0.15_PT045H.grib2 2026-04-24 04:09 1.1M
20260424T00Z_MSC_GDPS_SpecificHumidity_AGL-2m_LatLon0.15_PT045H.grib2 2026-04-24 04:09 1.2M
20260424T00Z_MSC_GDPS_SpecificHumidity_AGL-40m_LatLon0.15_PT045H.grib2 2026-04-24 04:09 1.1M
20260424T00Z_MSC_GDPS_SpecificHumidity_AGL-80m_LatLon0.15_PT045H.grib2 2026-04-24 04:09 1.1M
20260424T00Z_MSC_GDPS_SpecificHumidity_IsbL-0001_LatLon0.15_PT045H.grib2 2026-04-24 04:09 1.3M
20260424T00Z_MSC_GDPS_SpecificHumidity_IsbL-0005_LatLon0.15_PT045H.grib2 2026-04-24 04:09 1.2M
20260424T00Z_MSC_GDPS_SpecificHumidity_IsbL-0010_LatLon0.15_PT045H.grib2 2026-04-24 04:09 1.3M
20260424T00Z_MSC_GDPS_SpecificHumidity_IsbL-0020_LatLon0.15_PT045H.grib2 2026-04-24 04:09 1.4M
20260424T00Z_MSC_GDPS_SpecificHumidity_IsbL-0030_LatLon0.15_PT045H.grib2 2026-04-24 04:09 1.7M
20260424T00Z_MSC_GDPS_SpecificHumidity_IsbL-0050_LatLon0.15_PT045H.grib2 2026-04-24 04:09 1.4M
20260424T00Z_MSC_GDPS_SpecificHumidity_IsbL-0100_LatLon0.15_PT045H.grib2 2026-04-24 04:09 1.4M
20260424T00Z_MSC_GDPS_SpecificHumidity_IsbL-0150_LatLon0.15_PT045H.grib2 2026-04-24 04:09 1.0M
20260424T00Z_MSC_GDPS_SpecificHumidity_IsbL-0175_LatLon0.15_PT045H.grib2 2026-04-24 04:09 1.3M
20260424T00Z_MSC_GDPS_SpecificHumidity_IsbL-0200_LatLon0.15_PT045H.grib2 2026-04-24 04:09 1.3M
20260424T00Z_MSC_GDPS_SpecificHumidity_IsbL-0225_LatLon0.15_PT045H.grib2 2026-04-24 04:09 1.3M
20260424T00Z_MSC_GDPS_SpecificHumidity_IsbL-0250_LatLon0.15_PT045H.grib2 2026-04-24 04:09 1.4M
20260424T00Z_MSC_GDPS_SpecificHumidity_IsbL-0275_LatLon0.15_PT045H.grib2 2026-04-24 04:09 1.3M
20260424T00Z_MSC_GDPS_SpecificHumidity_IsbL-0300_LatLon0.15_PT045H.grib2 2026-04-24 04:09 1.2M
20260424T00Z_MSC_GDPS_SpecificHumidity_IsbL-0350_LatLon0.15_PT045H.grib2 2026-04-24 04:09 1.5M
20260424T00Z_MSC_GDPS_SpecificHumidity_IsbL-0400_LatLon0.15_PT045H.grib2 2026-04-24 04:09 1.5M
20260424T00Z_MSC_GDPS_SpecificHumidity_IsbL-0450_LatLon0.15_PT045H.grib2 2026-04-24 04:09 1.6M
20260424T00Z_MSC_GDPS_SpecificHumidity_IsbL-0500_LatLon0.15_PT045H.grib2 2026-04-24 04:09 1.4M
20260424T00Z_MSC_GDPS_SpecificHumidity_IsbL-0550_LatLon0.15_PT045H.grib2 2026-04-24 04:09 1.6M
20260424T00Z_MSC_GDPS_SpecificHumidity_IsbL-0600_LatLon0.15_PT045H.grib2 2026-04-24 04:09 1.7M
20260424T00Z_MSC_GDPS_SpecificHumidity_IsbL-0650_LatLon0.15_PT045H.grib2 2026-04-24 04:09 1.5M
20260424T00Z_MSC_GDPS_SpecificHumidity_IsbL-0700_LatLon0.15_PT045H.grib2 2026-04-24 04:09 1.6M
20260424T00Z_MSC_GDPS_SpecificHumidity_IsbL-0750_LatLon0.15_PT045H.grib2 2026-04-24 04:09 1.7M
20260424T00Z_MSC_GDPS_SpecificHumidity_IsbL-0800_LatLon0.15_PT045H.grib2 2026-04-24 04:09 1.8M
20260424T00Z_MSC_GDPS_SpecificHumidity_IsbL-0850_LatLon0.15_PT045H.grib2 2026-04-24 04:09 1.9M
20260424T00Z_MSC_GDPS_SpecificHumidity_IsbL-0875_LatLon0.15_PT045H.grib2 2026-04-24 04:09 1.9M
20260424T00Z_MSC_GDPS_SpecificHumidity_IsbL-0900_LatLon0.15_PT045H.grib2 2026-04-24 04:09 1.9M
20260424T00Z_MSC_GDPS_SpecificHumidity_IsbL-0925_LatLon0.15_PT045H.grib2 2026-04-24 04:09 1.9M
20260424T00Z_MSC_GDPS_SpecificHumidity_IsbL-0950_LatLon0.15_PT045H.grib2 2026-04-24 04:09 1.5M
20260424T00Z_MSC_GDPS_SpecificHumidity_IsbL-0970_LatLon0.15_PT045H.grib2 2026-04-24 04:09 1.5M
20260424T00Z_MSC_GDPS_SpecificHumidity_IsbL-0985_LatLon0.15_PT045H.grib2 2026-04-24 04:09 1.5M
20260424T00Z_MSC_GDPS_SpecificHumidity_IsbL-1000_LatLon0.15_PT045H.grib2 2026-04-24 04:09 1.5M
20260424T00Z_MSC_GDPS_SpecificHumidity_IsbL-1015_LatLon0.15_PT045H.grib2 2026-04-24 04:09 1.4M
20260424T00Z_MSC_GDPS_SpecificHumidity_Sfc_LatLon0.15_PT045H.grib2 2026-04-24 04:09 663K
20260424T00Z_MSC_GDPS_Thickness_IsbL-0850to0700_LatLon0.15_PT045H.grib2 2026-04-24 04:09 464K
20260424T00Z_MSC_GDPS_Thickness_IsbL-1000to0500_LatLon0.15_PT045H.grib2 2026-04-24 04:09 370K
20260424T00Z_MSC_GDPS_Thickness_IsbL-1000to0850_LatLon0.15_PT045H.grib2 2026-04-24 04:09 488K
20260424T00Z_MSC_GDPS_TotalCloudCover_Sfc_LatLon0.15_PT045H.grib2 2026-04-24 04:09 847K
20260424T00Z_MSC_GDPS_TotalTotalsIndex_Sfc_LatLon0.15_PT045H.grib2 2026-04-24 04:09 6.2M
20260424T00Z_MSC_GDPS_UVIndex-ClearSky_Sfc_LatLon0.15_PT045H.grib2 2026-04-24 04:50 1.0M
20260424T00Z_MSC_GDPS_UVIndex_Sfc_LatLon0.15_PT045H.grib2 2026-04-24 04:50 1.5M
20260424T00Z_MSC_GDPS_UpwardLongwaveRadiationFlux_NTAtm_LatLon0.15_PT045H.grib2 2026-04-24 04:09 843K
20260424T00Z_MSC_GDPS_VerticalVelocity_IsbL-0200_LatLon0.15_PT045H.grib2 2026-04-24 04:09 1.0M
20260424T00Z_MSC_GDPS_VerticalVelocity_IsbL-0250_LatLon0.15_PT045H.grib2 2026-04-24 04:09 1.1M
20260424T00Z_MSC_GDPS_VerticalVelocity_IsbL-0500_LatLon0.15_PT045H.grib2 2026-04-24 04:09 1.0M
20260424T00Z_MSC_GDPS_VerticalVelocity_IsbL-0600_LatLon0.15_PT045H.grib2 2026-04-24 04:09 1.1M
20260424T00Z_MSC_GDPS_VerticalVelocity_IsbL-0700_LatLon0.15_PT045H.grib2 2026-04-24 04:09 1.1M
20260424T00Z_MSC_GDPS_VerticalVelocity_IsbL-0850_LatLon0.15_PT045H.grib2 2026-04-24 04:09 1.6M
20260424T00Z_MSC_GDPS_WindChill_Sfc_LatLon0.15_PT045H.grib2 2026-04-24 04:09 5.3M
20260424T00Z_MSC_GDPS_WindDir_AGL-10m_LatLon0.15_PT045H.grib2 2026-04-24 04:09 1.4M
20260424T00Z_MSC_GDPS_WindDir_AGL-120m_LatLon0.15_PT045H.grib2 2026-04-24 04:09 1.4M
20260424T00Z_MSC_GDPS_WindDir_AGL-40m_LatLon0.15_PT045H.grib2 2026-04-24 04:09 1.4M
20260424T00Z_MSC_GDPS_WindDir_AGL-80m_LatLon0.15_PT045H.grib2 2026-04-24 04:09 1.4M
20260424T00Z_MSC_GDPS_WindDir_IsbL-0001_LatLon0.15_PT045H.grib2 2026-04-24 04:09 656K
20260424T00Z_MSC_GDPS_WindDir_IsbL-0005_LatLon0.15_PT045H.grib2 2026-04-24 04:09 824K
20260424T00Z_MSC_GDPS_WindDir_IsbL-0010_LatLon0.15_PT045H.grib2 2026-04-24 04:09 869K
20260424T00Z_MSC_GDPS_WindDir_IsbL-0020_LatLon0.15_PT045H.grib2 2026-04-24 04:09 969K
20260424T00Z_MSC_GDPS_WindDir_IsbL-0030_LatLon0.15_PT045H.grib2 2026-04-24 04:09 931K
20260424T00Z_MSC_GDPS_WindDir_IsbL-0050_LatLon0.15_PT045H.grib2 2026-04-24 04:09 954K
20260424T00Z_MSC_GDPS_WindDir_IsbL-0100_LatLon0.15_PT045H.grib2 2026-04-24 04:09 1.0M
20260424T00Z_MSC_GDPS_WindDir_IsbL-0150_LatLon0.15_PT045H.grib2 2026-04-24 04:09 1.0M
20260424T00Z_MSC_GDPS_WindDir_IsbL-0175_LatLon0.15_PT045H.grib2 2026-04-24 04:09 1.1M
20260424T00Z_MSC_GDPS_WindDir_IsbL-0200_LatLon0.15_PT045H.grib2 2026-04-24 04:09 1.1M
20260424T00Z_MSC_GDPS_WindDir_IsbL-0225_LatLon0.15_PT045H.grib2 2026-04-24 04:09 1.1M
20260424T00Z_MSC_GDPS_WindDir_IsbL-0250_LatLon0.15_PT045H.grib2 2026-04-24 04:09 1.1M
20260424T00Z_MSC_GDPS_WindDir_IsbL-0275_LatLon0.15_PT045H.grib2 2026-04-24 04:09 1.2M
20260424T00Z_MSC_GDPS_WindDir_IsbL-0300_LatLon0.15_PT045H.grib2 2026-04-24 04:09 1.2M
20260424T00Z_MSC_GDPS_WindDir_IsbL-0350_LatLon0.15_PT045H.grib2 2026-04-24 04:09 1.2M
20260424T00Z_MSC_GDPS_WindDir_IsbL-0400_LatLon0.15_PT045H.grib2 2026-04-24 04:09 1.3M
20260424T00Z_MSC_GDPS_WindDir_IsbL-0450_LatLon0.15_PT045H.grib2 2026-04-24 04:09 1.3M
20260424T00Z_MSC_GDPS_WindDir_IsbL-0500_LatLon0.15_PT045H.grib2 2026-04-24 04:09 1.4M
20260424T00Z_MSC_GDPS_WindDir_IsbL-0550_LatLon0.15_PT045H.grib2 2026-04-24 04:09 1.4M
20260424T00Z_MSC_GDPS_WindDir_IsbL-0600_LatLon0.15_PT045H.grib2 2026-04-24 04:09 1.5M
20260424T00Z_MSC_GDPS_WindDir_IsbL-0650_LatLon0.15_PT045H.grib2 2026-04-24 04:09 1.6M
20260424T00Z_MSC_GDPS_WindDir_IsbL-0700_LatLon0.15_PT045H.grib2 2026-04-24 04:09 1.6M
20260424T00Z_MSC_GDPS_WindDir_IsbL-0750_LatLon0.15_PT045H.grib2 2026-04-24 04:09 1.7M
20260424T00Z_MSC_GDPS_WindDir_IsbL-0800_LatLon0.15_PT045H.grib2 2026-04-24 04:09 1.8M
20260424T00Z_MSC_GDPS_WindDir_IsbL-0850_LatLon0.15_PT045H.grib2 2026-04-24 04:09 1.9M
20260424T00Z_MSC_GDPS_WindDir_IsbL-0875_LatLon0.15_PT045H.grib2 2026-04-24 04:09 2.0M
20260424T00Z_MSC_GDPS_WindDir_IsbL-0900_LatLon0.15_PT045H.grib2 2026-04-24 04:09 2.0M
20260424T00Z_MSC_GDPS_WindDir_IsbL-0925_LatLon0.15_PT045H.grib2 2026-04-24 04:09 2.0M
20260424T00Z_MSC_GDPS_WindDir_IsbL-0950_LatLon0.15_PT045H.grib2 2026-04-24 04:09 2.0M
20260424T00Z_MSC_GDPS_WindDir_IsbL-0970_LatLon0.15_PT045H.grib2 2026-04-24 04:09 2.0M
20260424T00Z_MSC_GDPS_WindDir_IsbL-0985_LatLon0.15_PT045H.grib2 2026-04-24 04:09 2.1M
20260424T00Z_MSC_GDPS_WindDir_IsbL-1000_LatLon0.15_PT045H.grib2 2026-04-24 04:09 2.1M
20260424T00Z_MSC_GDPS_WindDir_IsbL-1015_LatLon0.15_PT045H.grib2 2026-04-24 04:09 2.1M
20260424T00Z_MSC_GDPS_WindGust-Max_AGL-10m_LatLon0.15_PT045H.grib2 2026-04-24 04:09 2.2M
20260424T00Z_MSC_GDPS_WindGust-Min_AGL-10m_LatLon0.15_PT045H.grib2 2026-04-24 04:09 2.2M
20260424T00Z_MSC_GDPS_WindGust_AGL-10m_LatLon0.15_PT045H.grib2 2026-04-24 04:09 2.2M
20260424T00Z_MSC_GDPS_WindSpeed_AGL-10m_LatLon0.15_PT045H.grib2 2026-04-24 04:09 1.1M
20260424T00Z_MSC_GDPS_WindSpeed_AGL-120m_LatLon0.15_PT045H.grib2 2026-04-24 04:09 1.3M
20260424T00Z_MSC_GDPS_WindSpeed_AGL-40m_LatLon0.15_PT045H.grib2 2026-04-24 04:09 1.3M
20260424T00Z_MSC_GDPS_WindSpeed_AGL-80m_LatLon0.15_PT045H.grib2 2026-04-24 04:09 1.3M
20260424T00Z_MSC_GDPS_WindSpeed_IsbL-0001_LatLon0.15_PT045H.grib2 2026-04-24 04:09 644K
20260424T00Z_MSC_GDPS_WindSpeed_IsbL-0005_LatLon0.15_PT045H.grib2 2026-04-24 04:09 616K
20260424T00Z_MSC_GDPS_WindSpeed_IsbL-0010_LatLon0.15_PT045H.grib2 2026-04-24 04:09 632K
20260424T00Z_MSC_GDPS_WindSpeed_IsbL-0020_LatLon0.15_PT045H.grib2 2026-04-24 04:09 864K
20260424T00Z_MSC_GDPS_WindSpeed_IsbL-0030_LatLon0.15_PT045H.grib2 2026-04-24 04:09 867K
20260424T00Z_MSC_GDPS_WindSpeed_IsbL-0050_LatLon0.15_PT045H.grib2 2026-04-24 04:09 1.0M
20260424T00Z_MSC_GDPS_WindSpeed_IsbL-0100_LatLon0.15_PT045H.grib2 2026-04-24 04:09 1.1M
20260424T00Z_MSC_GDPS_WindSpeed_IsbL-0150_LatLon0.15_PT045H.grib2 2026-04-24 04:09 1.0M
20260424T00Z_MSC_GDPS_WindSpeed_IsbL-0175_LatLon0.15_PT045H.grib2 2026-04-24 04:09 1.0M
20260424T00Z_MSC_GDPS_WindSpeed_IsbL-0200_LatLon0.15_PT045H.grib2 2026-04-24 04:09 1.1M
20260424T00Z_MSC_GDPS_WindSpeed_IsbL-0225_LatLon0.15_PT045H.grib2 2026-04-24 04:09 1.1M
20260424T00Z_MSC_GDPS_WindSpeed_IsbL-0250_LatLon0.15_PT045H.grib2 2026-04-24 04:09 1.1M
20260424T00Z_MSC_GDPS_WindSpeed_IsbL-0275_LatLon0.15_PT045H.grib2 2026-04-24 04:09 1.1M
20260424T00Z_MSC_GDPS_WindSpeed_IsbL-0300_LatLon0.15_PT045H.grib2 2026-04-24 04:09 1.1M
20260424T00Z_MSC_GDPS_WindSpeed_IsbL-0350_LatLon0.15_PT045H.grib2 2026-04-24 04:09 1.1M
20260424T00Z_MSC_GDPS_WindSpeed_IsbL-0400_LatLon0.15_PT045H.grib2 2026-04-24 04:09 1.1M
20260424T00Z_MSC_GDPS_WindSpeed_IsbL-0450_LatLon0.15_PT045H.grib2 2026-04-24 04:09 1.1M
20260424T00Z_MSC_GDPS_WindSpeed_IsbL-0500_LatLon0.15_PT045H.grib2 2026-04-24 04:09 1.1M
20260424T00Z_MSC_GDPS_WindSpeed_IsbL-0550_LatLon0.15_PT045H.grib2 2026-04-24 04:09 1.1M
20260424T00Z_MSC_GDPS_WindSpeed_IsbL-0600_LatLon0.15_PT045H.grib2 2026-04-24 04:09 1.1M
20260424T00Z_MSC_GDPS_WindSpeed_IsbL-0650_LatLon0.15_PT045H.grib2 2026-04-24 04:09 1.4M
20260424T00Z_MSC_GDPS_WindSpeed_IsbL-0700_LatLon0.15_PT045H.grib2 2026-04-24 04:09 1.5M
20260424T00Z_MSC_GDPS_WindSpeed_IsbL-0750_LatLon0.15_PT045H.grib2 2026-04-24 04:09 1.6M
20260424T00Z_MSC_GDPS_WindSpeed_IsbL-0800_LatLon0.15_PT045H.grib2 2026-04-24 04:09 1.7M
20260424T00Z_MSC_GDPS_WindSpeed_IsbL-0850_LatLon0.15_PT045H.grib2 2026-04-24 04:09 1.7M
20260424T00Z_MSC_GDPS_WindSpeed_IsbL-0875_LatLon0.15_PT045H.grib2 2026-04-24 04:09 1.8M
20260424T00Z_MSC_GDPS_WindSpeed_IsbL-0900_LatLon0.15_PT045H.grib2 2026-04-24 04:09 1.8M
20260424T00Z_MSC_GDPS_WindSpeed_IsbL-0925_LatLon0.15_PT045H.grib2 2026-04-24 04:09 1.8M
20260424T00Z_MSC_GDPS_WindSpeed_IsbL-0950_LatLon0.15_PT045H.grib2 2026-04-24 04:09 1.9M
20260424T00Z_MSC_GDPS_WindSpeed_IsbL-0970_LatLon0.15_PT045H.grib2 2026-04-24 04:09 1.9M
20260424T00Z_MSC_GDPS_WindSpeed_IsbL-0985_LatLon0.15_PT045H.grib2 2026-04-24 04:09 1.9M
20260424T00Z_MSC_GDPS_WindSpeed_IsbL-1000_LatLon0.15_PT045H.grib2 2026-04-24 04:09 1.9M
20260424T00Z_MSC_GDPS_WindSpeed_IsbL-1015_LatLon0.15_PT045H.grib2 2026-04-24 04:09 1.8M
20260424T00Z_MSC_GDPS_WindU_AGL-10m_LatLon0.15_PT045H.grib2 2026-04-24 04:09 1.3M
20260424T00Z_MSC_GDPS_WindU_AGL-120m_LatLon0.15_PT045H.grib2 2026-04-24 04:09 1.0M
20260424T00Z_MSC_GDPS_WindU_AGL-40m_LatLon0.15_PT045H.grib2 2026-04-24 04:09 1.0M
20260424T00Z_MSC_GDPS_WindU_AGL-80m_LatLon0.15_PT045H.grib2 2026-04-24 04:09 1.0M
20260424T00Z_MSC_GDPS_WindU_IsbL-0001_LatLon0.15_PT045H.grib2 2026-04-24 04:09 644K
20260424T00Z_MSC_GDPS_WindU_IsbL-0005_LatLon0.15_PT045H.grib2 2026-04-24 04:09 693K
20260424T00Z_MSC_GDPS_WindU_IsbL-0010_LatLon0.15_PT045H.grib2 2026-04-24 04:09 707K
20260424T00Z_MSC_GDPS_WindU_IsbL-0020_LatLon0.15_PT045H.grib2 2026-04-24 04:09 738K
20260424T00Z_MSC_GDPS_WindU_IsbL-0030_LatLon0.15_PT045H.grib2 2026-04-24 04:09 742K
20260424T00Z_MSC_GDPS_WindU_IsbL-0050_LatLon0.15_PT045H.grib2 2026-04-24 04:09 704K
20260424T00Z_MSC_GDPS_WindU_IsbL-0100_LatLon0.15_PT045H.grib2 2026-04-24 04:09 914K
20260424T00Z_MSC_GDPS_WindU_IsbL-0150_LatLon0.15_PT045H.grib2 2026-04-24 04:09 1.0M
20260424T00Z_MSC_GDPS_WindU_IsbL-0175_LatLon0.15_PT045H.grib2 2026-04-24 04:09 814K
20260424T00Z_MSC_GDPS_WindU_IsbL-0200_LatLon0.15_PT045H.grib2 2026-04-24 04:09 844K
20260424T00Z_MSC_GDPS_WindU_IsbL-0225_LatLon0.15_PT045H.grib2 2026-04-24 04:09 855K
20260424T00Z_MSC_GDPS_WindU_IsbL-0250_LatLon0.15_PT045H.grib2 2026-04-24 04:09 857K
20260424T00Z_MSC_GDPS_WindU_IsbL-0275_LatLon0.15_PT045H.grib2 2026-04-24 04:09 883K
20260424T00Z_MSC_GDPS_WindU_IsbL-0300_LatLon0.15_PT045H.grib2 2026-04-24 04:09 876K
20260424T00Z_MSC_GDPS_WindU_IsbL-0350_LatLon0.15_PT045H.grib2 2026-04-24 04:09 893K
20260424T00Z_MSC_GDPS_WindU_IsbL-0400_LatLon0.15_PT045H.grib2 2026-04-24 04:09 894K
20260424T00Z_MSC_GDPS_WindU_IsbL-0450_LatLon0.15_PT045H.grib2 2026-04-24 04:09 1.1M
20260424T00Z_MSC_GDPS_WindU_IsbL-0500_LatLon0.15_PT045H.grib2 2026-04-24 04:09 1.1M
20260424T00Z_MSC_GDPS_WindU_IsbL-0550_LatLon0.15_PT045H.grib2 2026-04-24 04:09 1.1M
20260424T00Z_MSC_GDPS_WindU_IsbL-0600_LatLon0.15_PT045H.grib2 2026-04-24 04:09 1.2M
20260424T00Z_MSC_GDPS_WindU_IsbL-0650_LatLon0.15_PT045H.grib2 2026-04-24 04:09 1.2M
20260424T00Z_MSC_GDPS_WindU_IsbL-0700_LatLon0.15_PT045H.grib2 2026-04-24 04:09 1.2M
20260424T00Z_MSC_GDPS_WindU_IsbL-0750_LatLon0.15_PT045H.grib2 2026-04-24 04:09 1.3M
20260424T00Z_MSC_GDPS_WindU_IsbL-0800_LatLon0.15_PT045H.grib2 2026-04-24 04:09 1.4M
20260424T00Z_MSC_GDPS_WindU_IsbL-0850_LatLon0.15_PT045H.grib2 2026-04-24 04:09 1.4M
20260424T00Z_MSC_GDPS_WindU_IsbL-0875_LatLon0.15_PT045H.grib2 2026-04-24 04:09 1.5M
20260424T00Z_MSC_GDPS_WindU_IsbL-0900_LatLon0.15_PT045H.grib2 2026-04-24 04:09 1.5M
20260424T00Z_MSC_GDPS_WindU_IsbL-0925_LatLon0.15_PT045H.grib2 2026-04-24 04:09 1.5M
20260424T00Z_MSC_GDPS_WindU_IsbL-0950_LatLon0.15_PT045H.grib2 2026-04-24 04:09 1.4M
20260424T00Z_MSC_GDPS_WindU_IsbL-0970_LatLon0.15_PT045H.grib2 2026-04-24 04:09 1.4M
20260424T00Z_MSC_GDPS_WindU_IsbL-0985_LatLon0.15_PT045H.grib2 2026-04-24 04:09 1.4M
20260424T00Z_MSC_GDPS_WindU_IsbL-1000_LatLon0.15_PT045H.grib2 2026-04-24 04:09 1.4M
20260424T00Z_MSC_GDPS_WindU_IsbL-1015_LatLon0.15_PT045H.grib2 2026-04-24 04:09 1.4M
20260424T00Z_MSC_GDPS_WindV_AGL-10m_LatLon0.15_PT045H.grib2 2026-04-24 04:09 1.3M
20260424T00Z_MSC_GDPS_WindV_AGL-120m_LatLon0.15_PT045H.grib2 2026-04-24 04:09 1.0M
20260424T00Z_MSC_GDPS_WindV_AGL-40m_LatLon0.15_PT045H.grib2 2026-04-24 04:09 1.0M
20260424T00Z_MSC_GDPS_WindV_AGL-80m_LatLon0.15_PT045H.grib2 2026-04-24 04:09 1.0M
20260424T00Z_MSC_GDPS_WindV_IsbL-0001_LatLon0.15_PT045H.grib2 2026-04-24 04:09 708K
20260424T00Z_MSC_GDPS_WindV_IsbL-0005_LatLon0.15_PT045H.grib2 2026-04-24 04:09 786K
20260424T00Z_MSC_GDPS_WindV_IsbL-0010_LatLon0.15_PT045H.grib2 2026-04-24 04:09 887K
20260424T00Z_MSC_GDPS_WindV_IsbL-0020_LatLon0.15_PT045H.grib2 2026-04-24 04:09 855K
20260424T00Z_MSC_GDPS_WindV_IsbL-0030_LatLon0.15_PT045H.grib2 2026-04-24 04:09 855K
20260424T00Z_MSC_GDPS_WindV_IsbL-0050_LatLon0.15_PT045H.grib2 2026-04-24 04:09 911K
20260424T00Z_MSC_GDPS_WindV_IsbL-0100_LatLon0.15_PT045H.grib2 2026-04-24 04:09 1.1M
20260424T00Z_MSC_GDPS_WindV_IsbL-0150_LatLon0.15_PT045H.grib2 2026-04-24 04:09 1.0M
20260424T00Z_MSC_GDPS_WindV_IsbL-0175_LatLon0.15_PT045H.grib2 2026-04-24 04:09 1.0M
20260424T00Z_MSC_GDPS_WindV_IsbL-0200_LatLon0.15_PT045H.grib2 2026-04-24 04:09 841K
20260424T00Z_MSC_GDPS_WindV_IsbL-0225_LatLon0.15_PT045H.grib2 2026-04-24 04:09 851K
20260424T00Z_MSC_GDPS_WindV_IsbL-0250_LatLon0.15_PT045H.grib2 2026-04-24 04:09 850K
20260424T00Z_MSC_GDPS_WindV_IsbL-0275_LatLon0.15_PT045H.grib2 2026-04-24 04:09 879K
20260424T00Z_MSC_GDPS_WindV_IsbL-0300_LatLon0.15_PT045H.grib2 2026-04-24 04:09 928K
20260424T00Z_MSC_GDPS_WindV_IsbL-0350_LatLon0.15_PT045H.grib2 2026-04-24 04:09 941K
20260424T00Z_MSC_GDPS_WindV_IsbL-0400_LatLon0.15_PT045H.grib2 2026-04-24 04:09 883K
20260424T00Z_MSC_GDPS_WindV_IsbL-0450_LatLon0.15_PT045H.grib2 2026-04-24 04:09 884K
20260424T00Z_MSC_GDPS_WindV_IsbL-0500_LatLon0.15_PT045H.grib2 2026-04-24 04:09 890K
20260424T00Z_MSC_GDPS_WindV_IsbL-0550_LatLon0.15_PT045H.grib2 2026-04-24 04:09 1.1M
20260424T00Z_MSC_GDPS_WindV_IsbL-0600_LatLon0.15_PT045H.grib2 2026-04-24 04:09 1.1M
20260424T00Z_MSC_GDPS_WindV_IsbL-0650_LatLon0.15_PT045H.grib2 2026-04-24 04:09 1.2M
20260424T00Z_MSC_GDPS_WindV_IsbL-0700_LatLon0.15_PT045H.grib2 2026-04-24 04:09 1.2M
20260424T00Z_MSC_GDPS_WindV_IsbL-0750_LatLon0.15_PT045H.grib2 2026-04-24 04:09 1.2M
20260424T00Z_MSC_GDPS_WindV_IsbL-0800_LatLon0.15_PT045H.grib2 2026-04-24 04:09 1.3M
20260424T00Z_MSC_GDPS_WindV_IsbL-0850_LatLon0.15_PT045H.grib2 2026-04-24 04:09 1.4M
20260424T00Z_MSC_GDPS_WindV_IsbL-0875_LatLon0.15_PT045H.grib2 2026-04-24 04:09 1.4M
20260424T00Z_MSC_GDPS_WindV_IsbL-0900_LatLon0.15_PT045H.grib2 2026-04-24 04:09 1.5M
20260424T00Z_MSC_GDPS_WindV_IsbL-0925_LatLon0.15_PT045H.grib2 2026-04-24 04:09 1.5M
20260424T00Z_MSC_GDPS_WindV_IsbL-0950_LatLon0.15_PT045H.grib2 2026-04-24 04:09 1.4M
20260424T00Z_MSC_GDPS_WindV_IsbL-0970_LatLon0.15_PT045H.grib2 2026-04-24 04:09 1.4M
20260424T00Z_MSC_GDPS_WindV_IsbL-0985_LatLon0.15_PT045H.grib2 2026-04-24 04:09 1.4M
20260424T00Z_MSC_GDPS_WindV_IsbL-1000_LatLon0.15_PT045H.grib2 2026-04-24 04:09 1.4M
20260424T00Z_MSC_GDPS_WindV_IsbL-1015_LatLon0.15_PT045H.grib2 2026-04-24 04:09 1.4M